Weather Roundup
Issued by NWS

Home | Current Version | Previous Version | Graphics & Text | Print | Product List | Glossary Off
Versions: 1 2 3 4 5 6 7 8 9 10 11 12 13 14 15 16 17 18 19 20 21 22 23 24 25 26 27 28 29 30 31 32 33 34 35 36 37 38 39 40 41 42 43 44 45 46 47 48 49 50

000
NZUS93 KARX 200610
HRRWXR

CURRENT HOURLY OBSERVATIONS ACROSS
MUCH OF THE UPPER MISSISSIPPI VALLEY
NATIONAL WEATHER SERVICE LA CROSSE WI
100 AM CDT WED AUG 20 2014


...SOUTHEAST MINNESOTA...


CITY           SKY/WX    TMP DP  RH WIND       PRES   REMARKS
ROCHESTER      FAIR      64  62  93 SW6       29.82S
ROCHESTER/MAYO FAIR      67  63  84 W5        29.81S
WINONA         FAIR      64  63  94 CALM      29.79R
AUSTIN         FAIR      64  64 100 CALM      29.82S
ALBERT LEA     FAIR      66  66 100 CALM      29.82S FOG
DODGE CENTER   FAIR      63  63 100 SW6       29.82S
PRESTON        FAIR      65  65  99 SW6       29.82S
OWATONNA       FAIR      63  61  94 CALM      29.81F FOG
FARIBAULT      FAIR      66  61  82 CALM      29.81S HAZE
$$

...ELSEWHERE IN MINNESOTA...


CITY           SKY/WX    TMP DP  RH WIND       PRES   REMARKS
MINNEAPOLIS    FAIR      70  65  84 CALM      29.79S
INTNL FALLS    FAIR      50  50 100 CALM      29.83R
DULUTH         MOCLDY    61  58  90 E5        29.83S
RED WING       FAIR      64  63  94 CALM      29.79R
REDWOOD FALLS  FAIR      67  64  90 CALM      29.80S
MANKATO        FAIR      66  63  88 CALM      29.81R
WORTHINGTON    FAIR      64   9  11 SW3       29.86R
FAIRMONT       FAIR      66  50  55 CALM      29.83R
$$

...SOUTHWEST WISCONSIN...


CITY           SKY/WX    TMP DP  RH WIND       PRES   REMARKS
LA CROSSE      FAIR      67  64  90 SE5       29.79R
PRAIRIE DU CHI FAIR      66  63  91 CALM      29.80S
BOSCOBEL       MOCLDY    64  62  93 CALM      29.81R FOG
LONE ROCK      FAIR      66  60  81 CALM      29.80S
PLATTEVILLE    FAIR      64  63  94 CALM      29.83S
FORT MC COY    FAIR      60  59  97 CALM      29.81S
CAMP DOUGLAS   FOG       59  59  99 W2        29.80R VSB 1/2
VIROQUA        FAIR      63  63 100 CALM      29.81S
WIS DELLS      FAIR      63  60  92 CALM      29.80R
$$

...ELSEWHERE IN WISCONSIN...


CITY           SKY/WX    TMP DP  RH WIND       PRES   REMARKS
MILWAUKEE      FAIR      68  63  84 SW3       29.77S
MADISON        FAIR      64  61  90 CALM      29.80R
GREEN BAY      FAIR      63  62  97 NW7       29.76S
EAU CLAIRE     FAIR      64  64 100 CALM      29.79R
BLACK RVR FLS  FOG       60  60 100 CALM      29.79S VSB 1/2
MEDFORD        MOCLDY    57  57  99 CALM      29.80F FOG
WAUSAU         MOCLDY    62  61  96 CALM      29.78R
WIS RAPIDS     FOG       60  59  96 CALM      29.80S VSB 3/4
MARSHFIELD     FAIR      61  60  97 NW5       29.79S
RICE LAKE        N/A     62  60  94 N3        29.82S FOG
$$

...NORTHEAST IOWA...


CITY           SKY/WX    TMP DP  RH WIND       PRES   REMARKS
WATERLOO       FAIR      68  64  87 W5        29.81S
DUBUQUE        MOCLDY    63  61  93 SW3       29.83R
DECORAH        FAIR      66  64  94 CALM      29.81S
MASON CITY     FAIR      66  63  90 W7        29.84S
CHARLES CITY   FAIR      64  64 100 SW3       29.82S
OELWEIN        FAIR      66  64  94 SW5       29.83S
$$

...ELSEWHERE IN IOWA...


CITY           SKY/WX    TMP DP  RH WIND       PRES   REMARKS
DES MOINES     FAIR      73  66  78 SE3       29.82S
IOWA CITY      FAIR      66  64  93 CALM      29.84R
FORT DODGE     FAIR      63  63 100 CALM      29.84S
MARSHALLTOWN   FAIR      65  62  90 CALM      29.83S
CEDAR RAPIDS   FAIR      63  63 100 S5        29.83R
$$

...NORTHERN ILLINOIS...


CITY           SKY/WX    TMP DP  RH WIND       PRES   REMARKS
CHICAGO-OHARE  FAIR      70  62  76 W6        29.79R
DUPAGE         FAIR      67  62  84 W6        29.80R
CHICAGO-MIDWAY FAIR      73  65  75 W6        29.79R
MOLINE         FAIR      66  63  90 CALM      29.82S
ROCKFORD       FAIR      68  62  81 CALM      29.83R
STERLING       FAIR      66  63  88 W3        29.82S
PEORIA         FAIR      71  67  87 CALM      29.84R
$$

NOTE: "FAIR" INDICATES FEW OR NO CLOUDS BELOW 12,000 FEET WITH NO
SIGNIFICANT WEATHER AND/OR OBSTRUCTIONS TO VISIBILITY. WIND
SPEEDS ARE IN MILES-PER-HOUR.



USA.gov is the U.S. government's official web portal to all federal, state and local government web resources and services.